[[{"header":{"parameterUnit":"m.s-1","parameterCategory":1,"la1":30.2991,"la2":30.254,"lo1":-89.0895,"lo2":-89.0444,"dy":0.0017,"dx":0.0017,"nx":28,"ny":28,"refTime":"2023-10-19T09:00:00:Z","depth":0,"parameterNumber":2,"parameterNumberName":"U-component_of_WINDS"},"data":[0,0,0,0,0,0,0,0,0,0,0,0,0,0,0,0,0,0,0,0,0,0,0,0,0,0,0,0,0,0,0,0,0,0,0,0,0,0,0,0,0,0,0,0,0,0,0,0,0,0,0,0,0,0,0,0,0,0,4.6423,4.6423,0,4.6412,4.6412,4.6412,4.6329,4.6327,4.6325,4.6323,4.6313,4.6315,4.6316,0,0,0,0,0,0,0,0,0,0,0,0,0,4.6377,4.6378,4.6423,4.6423,4.6423,4.6412,4.6412,4.6412,4.633,4.6327,4.6325,4.6322,4.6313,4.6314,4.6316,0,0,0,0,0,0,0,0,0,0,0,0,0,4.6385,4.6379,4.6423,4.638,4.6376,4.6412,4.6412,4.6412,4.633,4.6327,4.6324,4.6321,4.6312,4.6314,4.6317,4.6392,0,0,4.6324,4.6325,0,0,0,0,0,0,0,0,4.6384,4.6386,4.6387,4.6383,4.6379,4.6369,4.6392,4.6405,4.6331,4.6348,4.6323,4.632,4.6334,4.6335,4.6339,4.6392,4.6391,4.6324,4.6326,4.6327,4.6327,0,0,0,0,0,0,0,4.6384,4.6386,4.6418,4.6387,4.6382,4.6363,4.6361,4.6394,4.6358,4.6346,4.634,4.634,4.6331,4.6337,4.6338,4.6391,4.6324,4.6326,4.6328,4.6329,4.6513,4.6516,0,0,0,0,0,0,4.6389,4.6387,4.6419,4.6418,4.6374,4.6367,4.6364,4.6375,4.6358,4.6352,4.6343,4.6336,4.6334,4.6336,4.6338,4.643,4.6327,4.6329,4.633,4.651,4.6514,4.6517,0,0,0,0,0,0,4.6388,4.6393,4.6419,4.6401,4.6403,4.6371,4.6384,4.6377,4.6382,4.6355,4.6348,4.6355,4.6332,4.6334,4.6381,4.6428,4.633,4.6332,4.6505,4.6511,4.6516,4.6613,0,0,0,0,0,0,4.6387,4.6393,4.642,4.6402,4.6404,4.6462,4.6387,4.6379,4.6386,4.6378,4.6364,4.6359,4.633,4.6378,4.6383,4.643,4.6334,4.6501,4.6508,4.6514,4.6605,4.662,4.6634,0,0,0,0,0,4.6386,4.6446,4.6422,4.6426,4.6437,4.6464,4.6466,4.643,4.639,4.6419,4.6402,4.636,4.6422,4.6383,4.6389,4.6437,4.6498,4.6506,4.6513,4.6599,4.6617,4.6633,0,0,0,0,0,0,4.6469,4.6443,4.6415,4.6471,4.6471,4.645,4.6484,4.645,4.6461,4.6453,4.6409,4.6406,4.6461,4.6453,4.641,4.6513,4.6453,4.6462,4.6516,4.6534,4.6548,4.6549,4.6336,0,0,0,0,0,4.6494,4.6517,4.6493,4.6545,4.6547,4.6516,4.6526,4.65,4.6498,4.6497,4.6483,4.6484,4.6504,4.6518,4.6534,4.6603,4.6602,4.664,4.6654,4.6666,4.6675,4.6717,4.6735,4.6543,4.6543,4.6543,0,0,4.6545,4.6534,4.6551,4.6562,4.6558,4.6586,4.6516,4.6547,4.6568,4.6501,4.6546,4.6537,4.6535,4.6595,4.662,4.659,4.6728,4.6676,4.6685,4.6688,4.6727,4.6745,4.6761,4.6548,4.6547,4.6546,0,0,4.6654,4.6646,4.6691,4.669,4.6687,4.6667,4.6678,4.6664,4.6656,4.67,4.6653,4.6678,4.6712,4.6714,4.672,4.6836,4.68,4.6843,4.6918,4.6959,4.6974,4.6988,4.7034,4.705,4.6851,4.6852,4.6852,0,4.6718,4.6757,4.6719,4.6755,4.6763,4.6706,4.6754,4.6754,4.6757,4.6765,4.673,4.6777,4.677,4.6833,4.6862,4.6867,4.6881,4.6844,4.6975,4.6988,4.7,4.7044,4.7061,4.6857,4.6857,4.6856,4.6856,0,4.6839,4.6868,4.6905,4.6911,4.6923,4.6964,4.6935,4.6952,4.6926,4.6911,4.696,4.6951,4.6968,4.698,4.6953,4.7041,4.7023,4.6983,4.6922,4.7025,4.7065,4.7081,4.6865,4.6863,4.6862,4.686,0,0,4.6997,4.6986,4.7,4.7005,4.7,4.7021,4.7063,4.708,4.7098,4.7102,4.7138,4.7171,4.7136,4.7143,4.7116,4.7152,4.7252,4.7108,4.7108,4.7139,4.7354,4.7386,4.7406,4.7227,4.723,4.7232,4.7355,0,4.7105,4.7174,4.7144,4.7217,4.7246,4.7195,4.7231,4.7234,4.7222,4.7246,4.7232,4.7258,4.7207,4.7212,4.7245,4.7233,4.7295,4.7223,4.7263,4.7265,4.7268,4.7426,4.7459,4.7576,4.737,4.7373,4.7375,0,4.7239,4.7253,4.733,4.7325,4.7336,4.7369,4.7386,4.7408,4.7412,4.7401,4.7412,4.7379,4.7422,4.7362,4.7423,4.7375,4.739,4.7387,4.739,4.7395,4.7328,4.7438,4.7611,4.763,4.7398,4.7397,4.7395,0,4.7353,4.739,4.7442,4.7447,4.7442,4.7467,4.7466,4.7467,4.7481,4.7496,4.7506,4.7525,4.7537,4.7554,4.7529,4.7486,4.7596,4.7531,4.7591,4.7592,4.7617,4.7616,4.7799,4.7622,4.7622,4.7621,4.7621,0,4.7478,4.7529,4.7494,4.7526,4.7583,4.7549,4.7606,4.7599,4.7601,4.7634,4.759,4.7621,4.7585,4.7614,4.7595,4.7651,4.7656,4.7651,4.7645,4.7656,4.7658,4.7667,4.7659,4.7626,4.7625,4.7624,4.7623,0,4.7615,4.7593,4.7648,4.764,4.7639,4.7682,4.7676,4.7707,4.7693,4.7736,4.7744,4.7723,4.7756,4.7732,4.7764,4.7751,4.7827,4.7809,4.7827,4.7823,4.7885,4.7881,4.8082,4.8109,4.7912,4.7914,4.7916,0,4.7697,4.7735,4.7733,4.7752,4.7755,4.7785,4.7801,4.777,4.7789,4.7799,4.7831,4.786,4.7881,4.7937,4.7926,4.7951,4.7935,4.8004,4.7939,4.7951,4.7942,4.7941,4.7947,4.8018,4.802,4.8022,4.8024,0,4.7848,4.7837,4.7861,4.7884,4.7905,4.792,4.7933,4.7951,4.7921,4.7944,4.7978,4.7996,4.803,4.8062,4.8084,4.8084,4.8051,4.8045,4.8061,4.8073,4.8084,4.8083,4.7866,4.804,4.8039,4.8037,4.8037,4.8036,4.7962,4.7996,4.8002,4.8032,4.8039,4.8053,4.8084,4.8076,4.8104,4.8131,4.8111,4.8153,4.816,4.8187,4.8193,4.8227,4.8199,4.822,4.8227,4.8233,4.8244,4.8077,4.823,4.823,4.8229,4.8229,4.8228,0,4.8115,4.8117,4.8145,4.8166,4.8191,4.8158,4.8171,4.8195,4.8233,4.8243,4.8267,4.8308,4.834,4.8333,4.8362,4.8391,4.8377,4.84,4.8399,4.8401,4.8265,4.8251,4.8412,4.8412,4.8412,4.8412,4.8412,4.8412,4.8197,4.8254,4.8245,4.8307,4.8309,4.835,4.8362,4.8376,4.8385,4.8434,4.846,4.8456,4.8461,4.8491,4.852,4.8517,4.8532,4.8562,4.8554,4.8428,4.841,4.8393,4.8379,4.8564,4.8565,4.8688,4.8689,4.869]},{"header":{"parameterUnit":"m.s-1","parameterCategory":1,"la1":30.2991,"la2":30.254,"lo1":-89.0895,"lo2":-89.0444,"dy":0.0017,"dx":0.0017,"nx":28,"ny":28,"refTime":"2023-10-19T09:00:00:Z","depth":0,"parameterNumber":3,"parameterNumberName":"V-component_of_WINDS"},"data":[0,0,0,0,0,0,0,0,0,0,0,0,0,0,0,0,0,0,0,0,0,0,0,0,0,0,0,0,0,0,0,0,0,0,0,0,0,0,0,0,0,0,0,0,0,0,0,0,0,0,0,0,0,0,0,0,0,0,0.9488,0.9489,0,0.9665,0.9667,0.9669,0.9674,0.9672,0.967,0.9668,0.9854,0.9861,0.9867,0,0,0,0,0,0,0,0,0,0,0,0,0,0.9157,0.9163,0.9487,0.949,0.9492,0.9665,0.9667,0.9669,0.9675,0.9672,0.9669,0.9667,0.9852,0.986,0.9868,0,0,0,0,0,0,0,0,0,0,0,0,0,0.9314,0.9165,0.9487,0.9515,0.9519,0.9664,0.9667,0.967,0.9675,0.9672,0.9669,0.9666,0.9849,0.9859,0.9869,0.9999,0,0,0.9901,0.9906,0,0,0,0,0,0,0,0,0.9305,0.9326,0.9509,0.9513,0.9518,0.9644,0.9619,0.9781,0.9676,0.9616,0.9668,0.9664,0.9787,0.9802,0.9843,1.0008,1.0016,0.9902,0.9909,0.9913,0.9916,0,0,0,0,0,0,0,0.9294,0.9318,0.9558,0.9511,0.9517,0.952,0.9539,0.9649,0.9718,0.9621,0.9622,0.9643,0.9789,0.9833,0.9847,1.0019,0.9902,0.9911,0.9918,0.9922,1.0297,1.0301,0,0,0,0,0,0,0.9277,0.9309,0.9552,0.9563,0.9401,0.9529,0.955,0.9607,0.9717,0.973,0.9645,0.9642,0.9816,0.9835,0.9854,1.0011,0.9913,0.9923,0.9929,1.0294,1.0298,1.0302,0,0,0,0,0,0,0.927,0.9299,0.9545,0.9436,0.9468,0.9538,0.9602,0.9612,0.9656,0.9735,0.9747,0.9677,0.9815,0.9839,0.9962,1.0018,0.9927,0.9937,1.0289,1.0295,1.03,1.0329,0,0,0,0,0,0,0.926,0.9296,0.9345,0.9437,0.9474,0.965,0.9606,0.9618,0.9673,0.9671,0.9768,0.9781,0.9814,0.9947,0.9973,1.0031,0.9945,1.0285,1.0292,1.0298,1.0323,1.0335,1.0344,0,0,0,0,0,0.9248,0.9348,0.9348,0.9377,0.9537,0.9653,0.9674,0.9708,0.9678,0.9728,0.9779,0.9778,1.0008,0.9959,0.9989,1.0051,1.0281,1.029,1.0298,1.0318,1.0332,1.0344,0,0,0,0,0,0,0.9262,0.936,0.9361,0.9493,0.9564,0.9653,0.9718,0.9722,0.9805,0.9799,0.984,0.9862,0.9984,1.003,0.9974,1.0181,1.0141,1.0156,1.0147,1.0161,1.0171,1.0157,0.9954,0,0,0,0,0,0.928,0.9365,0.9447,0.9555,0.959,0.9648,0.97,0.972,0.9796,0.9827,0.9887,0.9961,1.005,1.0108,1.0195,1.033,1.0351,1.0387,1.0398,1.0406,1.0418,1.0491,1.0508,1.033,1.033,1.0329,0,0,0.9319,0.9383,0.9434,0.9559,0.9617,0.9704,0.9673,0.9768,0.9833,0.9842,0.9961,1.0007,1.0094,1.0223,1.0283,1.0265,1.0472,1.0417,1.0423,1.043,1.0502,1.0518,1.0533,1.0335,1.0334,1.0333,0,0,0.9433,0.9491,0.9586,0.9644,0.9731,0.9768,0.9791,0.988,0.991,1.003,1.0037,1.0117,1.027,1.033,1.0381,1.0517,1.0519,1.0545,1.06,1.0671,1.0685,1.0697,1.0744,1.0761,1.0556,1.0557,1.0557,0,0.947,0.9601,0.9635,0.9729,0.9783,0.9793,0.9891,0.9946,1.0057,1.0095,1.0073,1.0264,1.0323,1.0465,1.0498,1.054,1.0567,1.0533,1.068,1.0693,1.0705,1.075,1.0768,1.0559,1.0559,1.0558,1.0558,0,0.9642,0.9733,0.98,0.9904,0.9967,1.0062,1.0111,1.017,1.0185,1.0225,1.0347,1.0418,1.0518,1.0554,1.057,1.0699,1.0684,1.0671,1.0631,1.0724,1.0767,1.0785,1.0562,1.0561,1.0561,1.056,0,0,0.9769,0.9891,0.9915,0.9962,1.0058,1.0129,1.0225,1.0321,1.0371,1.0447,1.0528,1.0657,1.0644,1.0702,1.0725,1.0788,1.0889,1.0767,1.0769,1.0785,1.1033,1.1041,1.106,1.0891,1.0894,1.0897,1.1025,0,0.9893,1.0061,1.0094,1.0241,1.0324,1.0335,1.0418,1.0487,1.0527,1.0604,1.0649,1.0739,1.0716,1.0751,1.0813,1.0863,1.0939,1.0855,1.0966,1.097,1.0942,1.1083,1.1093,1.1209,1.1042,1.1045,1.1047,0,1.0059,1.0137,1.0291,1.0375,1.0411,1.0486,1.0575,1.065,1.0728,1.0752,1.0816,1.0832,1.0932,1.0888,1.1026,1.0968,1.1016,1.1048,1.1053,1.1064,1.1013,1.1096,1.1248,1.1264,1.1074,1.1072,1.107,0,1.0134,1.0279,1.0389,1.0429,1.053,1.0581,1.0626,1.0701,1.0756,1.0835,1.0871,1.0962,1.1012,1.1082,1.1122,1.1087,1.1257,1.1217,1.1279,1.1278,1.1314,1.131,1.1473,1.1347,1.1347,1.1347,1.1346,0,1.0267,1.0361,1.0423,1.0491,1.0596,1.0634,1.0737,1.0782,1.0848,1.0925,1.0941,1.1013,1.1062,1.1142,1.1174,1.1282,1.1305,1.1328,1.1335,1.1325,1.1322,1.1356,1.1348,1.1351,1.135,1.1349,1.1349,0,1.0368,1.0414,1.0535,1.062,1.0643,1.0717,1.079,1.0857,1.0896,1.0993,1.1018,1.1082,1.1175,1.1223,1.134,1.1362,1.1484,1.1487,1.1457,1.1459,1.1518,1.1511,1.1707,1.1734,1.1592,1.1593,1.1594,0,1.0449,1.0521,1.0613,1.0665,1.071,1.0794,1.085,1.089,1.0948,1.1041,1.1096,1.119,1.1268,1.1417,1.1474,1.1564,1.1568,1.1631,1.1582,1.1569,1.1567,1.1561,1.1568,1.1639,1.164,1.1641,1.1642,0,1.0587,1.0606,1.0685,1.0772,1.0838,1.0909,1.0979,1.1021,1.1073,1.1137,1.1232,1.1292,1.1411,1.1504,1.1597,1.1644,1.1652,1.1657,1.1676,1.1666,1.1644,1.1655,1.1478,1.1652,1.1651,1.165,1.165,1.1649,1.068,1.0743,1.0817,1.0905,1.0961,1.1026,1.1092,1.1139,1.1219,1.1318,1.1337,1.1438,1.1513,1.1639,1.1689,1.1769,1.1755,1.1783,1.179,1.1796,1.1797,1.1633,1.1786,1.1786,1.1786,1.1786,1.1785,0,1.0817,1.0865,1.0945,1.1041,1.111,1.111,1.1188,1.1245,1.1333,1.1402,1.1477,1.1586,1.1676,1.174,1.1831,1.1883,1.1888,1.1905,1.1901,1.1911,1.1805,1.1779,1.1899,1.1899,1.1899,1.1899,1.1899,1.1899,1.0896,1.1003,1.103,1.1165,1.1214,1.1311,1.1355,1.1414,1.1469,1.159,1.1664,1.1704,1.1771,1.1868,1.195,1.1967,1.1999,1.2015,1.2032,1.1931,1.1919,1.1907,1.1882,1.2023,1.2023,1.2131,1.2132,1.2132]}]]